Main page
METAR-TAF:

METAR-TAF

Airports :

Çiğli Air Base

Izmir, Turkey

latitude: 38-30N, longitude: 027-01E, elevation: 5 m

METAR: missing

Time: 21:26 (18:26 UTC)

Forecast

The report was made 1 hour and 46 minutes ago, at 16:40 UTC
Forecast valid from 23 at 18 UTC to 24 at 03 UTC
Wind 15 kt from the North
Visibility 10 km or more
no clouds below 1500 m and no cumulonimbus

TAF: LTBL 231640Z 2318/2403 01015KT CAVOK

Weather observations and forecasts of more than 4000 airports (METAR and TAF reports).

The available stations are represented by yellow and red dots on the map.

Hover mouse over dot to see the name of the station.

Then click to see weather observations and forecasts.

To change the map : click on the green buttons with a black cross to zoom in, on the green button with a dash to zoom out, or on the green arrows for adjacent maps.


METAR-TAF: